Location: Antoign�
(47.0844°N, 0.1131°W)
Time: 01:51:52
(UTC+00:00)

ARGOS - Pass Details

Date: 03 March 2021
Orbit: 819 x 835 km, 98.4° (Epoch: 17 April)

Event Time Altitude Azimuth Distance (km) Brightness Sun altitude
Rises 19:30:06 0° 183° (S) 3,366 6.3 -18.0°
Reaches altitude 10° 19:32:33 10° 190° (S) 2,438 5.6 -18.4°
Maximum altitude 19:37:42 44° 262° (W) 1,137 4.3 -19.2°
Drops below altitude 10° 19:42:55 10° 334° (NNW) 2,458 6.1 -20.1°
Sets 19:45:24 0° 341° (NNW) 3,397 6.8 -20.5°
